Wharton, TX

5:12 AM CDT on October 15, 2019 (GMT -0500)
Wharton Regional

Weather History for KARM - September, 2019

Change the Weather History Date:

Tuesday, September 17, 2019

  Actual Average (WUND) Record (WUND)
Temperature  
Mean Temperature 76 °F -  
Max Temperature 79 °F - - (-1)
Min Temperature 73 °F - - (-1)
Cooling Degree Days 11    
Growing Degree Days 26 (Base 50)    
Moisture  
Dew Point 73 °F    
Average Humidity 91    
Maximum Humidity 96    
Minimum Humidity 82    
Precipitation  
Precipitation 0.23 in - - ()
Sea Level Pressure  
Sea Level Pressure 29.88 in    
Wind  
Wind Speed 5 mph ()    
Max Wind Speed 8 mph    
Max Gust Speed -    
Visibility 9.1 miles    
Events Rain , Thunderstorm    
Averages and records for this station are not official NWS values.
T = Trace of Precipitation, MM = Missing Value Source: Averaged Metar Reports

Daily Weather History Graph

Daily Weather History Graph

Search for Another Location

Airport or City:

Astronomy

Sep. 17, 2019 Rise Set
Actual Time 7:10 AM CDT 7:27 PM CDT
Civil Twilight 6:46 AM CDT 7:51 PM CDT
Nautical Twilight 6:18 AM CDT 8:18 PM CDT
Astronomical Twilight 5:50 AM CDT 8:46 PM CDT
Moon 9:45 PM CDT (9/17) 10:03 AM CDT (9/17)
Length of Visible Light 13h 04m
Length of Day
12h 17m
Waning Gibbous, 89% of the Moon is Illuminated
Sep 17
Waning Gibbous
Sep 21
Last Quarter
Sep 28
New
Oct 5
First Quarter
Oct 13
Full

Hourly Weather History & Observations

Time (CDT) Temp. Dew Point Humidity Pressure Visibility Wind Dir Wind Speed Gust Speed Precip Events Conditions
12:10 AM 75.0 °F 72.3 °F 91% 29.92 in 10.0 mi NE 3.5 mph - N/A   Scattered Clouds
12:35 AM 74.7 °F 72.1 °F 92% 29.92 in 10.0 mi North 3.5 mph - N/A   Mostly Cloudy
12:55 AM 74.5 °F 72.1 °F 92% 29.91 in 10.0 mi NNE 4.6 mph - N/A   Scattered Clouds
1:15 AM 74.7 °F 72.5 °F 93% 29.91 in 10.0 mi NNE 4.6 mph - N/A   Scattered Clouds
1:35 AM 74.3 °F 72.0 °F 92% 29.90 in 10.0 mi North 3.5 mph - N/A   Mostly Cloudy
1:55 AM 74.5 °F 72.5 °F 94% 29.90 in 10.0 mi NNE 4.6 mph - N/A   Mostly Cloudy
2:15 AM 74.3 °F 72.0 °F 92% 29.90 in 10.0 mi NNE 4.6 mph - N/A   Scattered Clouds
2:35 AM 74.3 °F 72.0 °F 92% 29.90 in 10.0 mi NNE 3.5 mph - N/A   Clear
2:55 AM 73.9 °F 71.8 °F 93% 29.90 in 10.0 mi Calm Calm - N/A   Clear
3:15 AM 73.6 °F 71.6 °F 93% 29.90 in 10.0 mi North 3.5 mph - N/A   Scattered Clouds
3:35 AM 73.4 °F 71.6 °F 94% 29.89 in 10.0 mi Calm Calm - N/A   Scattered Clouds
3:55 AM 73.6 °F 71.8 °F 94% 29.89 in 10.0 mi North 4.6 mph - N/A   Clear
4:15 AM 73.6 °F 72.0 °F 95% 29.89 in 10.0 mi NNE 4.6 mph - N/A   Clear
4:35 AM 73.4 °F 71.8 °F 95% 29.88 in 10.0 mi North 4.6 mph - N/A   Clear
4:55 AM 73.6 °F 72.1 °F 95% 29.88 in 10.0 mi North 6.9 mph - N/A   Scattered Clouds
5:15 AM 73.6 °F 72.1 °F 95% 29.88 in 7.0 mi NNE 3.5 mph - N/A   Scattered Clouds
5:35 AM 73.8 °F 72.5 °F 96% 29.88 in 10.0 mi NNE 4.6 mph - N/A   Scattered Clouds
5:55 AM 73.9 °F 72.5 °F 95% 29.88 in 10.0 mi North 6.9 mph - N/A   Mostly Cloudy
6:15 AM 73.8 °F 72.5 °F 96% 29.88 in 10.0 mi North 6.9 mph - N/A   Mostly Cloudy
6:35 AM 73.8 °F 72.3 °F 95% 29.88 in 10.0 mi North 5.8 mph - N/A   Overcast
6:55 AM 73.8 °F 72.5 °F 96% 29.90 in 10.0 mi NNE 5.8 mph - N/A   Overcast
7:15 AM 74.3 °F 72.7 °F 95% 29.89 in 10.0 mi NNE 4.6 mph - N/A   Overcast
7:35 AM 74.3 °F 72.7 °F 95% 29.90 in 10.0 mi NNE 4.6 mph - N/A   Overcast
7:55 AM 74.5 °F 72.9 °F 95% 29.89 in 10.0 mi NNE 4.6 mph - N/A   Overcast
8:15 AM 74.7 °F 73.0 °F 95% 29.90 in 10.0 mi NNE 5.8 mph - N/A   Overcast
8:35 AM 74.8 °F 73.0 °F 94% 29.90 in 10.0 mi North 6.9 mph - N/A   Overcast
8:55 AM 75.2 °F 73.4 °F 94% 29.90 in 10.0 mi NNE 6.9 mph - N/A   Overcast
9:15 AM 75.4 °F 73.4 °F 94% 29.90 in 10.0 mi NNE 5.8 mph - N/A   Overcast
9:35 AM 76.1 °F 73.8 °F 92% 29.90 in 10.0 mi North 4.6 mph - N/A   Overcast
9:55 AM 76.3 °F 73.6 °F 91% 29.91 in 10.0 mi NNE 6.9 mph - N/A   Overcast
10:35 AM 77.5 °F 73.6 °F 88% 29.91 in 10.0 mi NE 5.8 mph - N/A   Overcast
10:55 AM 78.6 °F 73.2 °F 83% 29.91 in 10.0 mi NE 5.8 mph - N/A   Overcast
11:15 AM 78.8 °F 72.9 °F 82% 29.91 in 10.0 mi ENE 5.8 mph - N/A   Overcast
11:35 AM 77.9 °F 72.7 °F 84% 29.91 in 10.0 mi ENE 3.5 mph - N/A Rain Light Rain
11:50 AM 77.9 °F 72.9 °F 84% 29.91 in 10.0 mi ENE 3.5 mph - 0.01 in Rain Light Rain
12:35 PM 76.6 °F 72.7 °F 87% 29.91 in 10.0 mi NE 5.8 mph - 0.01 in   Light Drizzle
12:55 PM 77.0 °F 72.9 °F 87% 29.90 in 4.0 mi NE 5.8 mph - 0.01 in Rain Heavy Rain
1:15 PM 76.8 °F 73.8 °F 90% 29.90 in 10.0 mi North 4.6 mph - N/A   Light Drizzle
1:35 PM 76.6 °F 73.6 °F 90% 29.89 in 4.0 mi North 6.9 mph - 0.03 in   Drizzle
1:50 PM 76.8 °F 73.9 °F 91% 29.89 in 4.0 mi North 5.8 mph - 0.03 in   Drizzle
2:15 PM 77.9 °F 74.8 °F 90% 29.87 in 10.0 mi NNW 5.8 mph - N/A   Overcast
2:35 PM 78.1 °F 74.5 °F 89% 29.87 in 10.0 mi North 6.9 mph - 0.01 in Rain Rain
2:55 PM 78.3 °F 74.3 °F 88% 29.86 in 10.0 mi NNW 8.1 mph - 0.01 in   Mostly Cloudy
3:15 PM 78.6 °F 73.9 °F 85% 29.85 in 10.0 mi North 8.1 mph - N/A   Mostly Cloudy
3:35 PM 78.4 °F 73.4 °F 84% 29.85 in 10.0 mi NNW 5.8 mph - N/A Rain Light Rain
3:55 PM 79.0 °F 73.6 °F 83% 29.84 in 10.0 mi NW 5.8 mph - N/A   Drizzle
4:15 PM 78.8 °F 72.9 °F 82% 29.84 in 10.0 mi NW 5.8 mph - N/A   Overcast
4:35 PM 78.1 °F 73.0 °F 84% 29.84 in 7.0 mi NW 4.6 mph - N/A Rain Light Rain
4:55 PM 77.5 °F 73.4 °F 87% 29.84 in 7.0 mi West 4.6 mph - 0.01 in   Drizzle
5:15 PM 77.9 °F 74.3 °F 89% 29.83 in 7.0 mi West 5.8 mph - N/A Rain Light Rain
5:35 PM 77.5 °F 74.1 °F 89% 29.83 in 7.0 mi West 6.9 mph - 0.01 in Rain Rain
5:55 PM 77.4 °F 74.1 °F 90% 29.84 in 10.0 mi West 4.6 mph - 0.01 in   Light Drizzle
6:15 PM 77.2 °F 73.8 °F 89% 29.84 in 5.0 mi WSW 4.6 mph - 0.01 in   Overcast
6:35 PM 76.5 °F 73.4 °F 90% 29.83 in 7.0 mi SW 6.9 mph - 0.11 in Rain Rain
6:55 PM 76.6 °F 73.6 °F 90% 29.83 in 10.0 mi SW 8.1 mph - 0.13 in   Drizzle
7:15 PM 77.0 °F 73.9 °F 90% 29.83 in 10.0 mi WSW 5.8 mph - N/A   Drizzle
7:35 PM 77.2 °F 74.5 °F 91% 29.83 in 10.0 mi SW 6.9 mph - N/A   Light Drizzle
7:55 PM 77.0 °F 74.5 °F 92% 29.83 in 10.0 mi WSW 5.8 mph - N/A   Light Drizzle
8:15 PM 77.0 °F 74.7 °F 92% 29.84 in 10.0 mi WSW 6.9 mph - N/A   Light Drizzle
8:35 PM 76.6 °F 74.3 °F 92% 29.85 in 10.0 mi West 6.9 mph - N/A Rain Light Rain
8:55 PM 77.0 °F 74.1 °F 91% 29.86 in 10.0 mi West 5.8 mph - N/A   Drizzle
9:15 PM 76.6 °F 73.9 °F 91% 29.87 in 10.0 mi West 6.9 mph - N/A   Overcast
9:35 PM 76.6 °F 73.8 °F 91% 29.87 in 10.0 mi WSW 4.6 mph - N/A   Overcast
9:55 PM 76.6 °F 73.9 °F 91% 29.87 in 10.0 mi WSW 5.8 mph - N/A   Overcast
10:15 PM 76.6 °F 73.9 °F 91% 29.87 in 7.0 mi WSW 4.6 mph - N/A Rain Rain
10:35 PM 76.3 °F 73.9 °F 92% 29.87 in 5.0 mi SW 6.9 mph - N/A   Drizzle
10:55 PM 76.3 °F 74.3 °F 94% 29.87 in 7.0 mi SW 5.8 mph - N/A Rain Light Rain
11:15 PM 76.1 °F 73.9 °F 93% 29.87 in 5.0 mi SW 5.8 mph - N/A Thunderstorm Overcast
11:35 PM 76.1 °F 73.9 °F 93% 29.88 in 7.0 mi SW 5.8 mph - 0.02 in   Overcast
11:55 PM 76.1 °F 74.3 °F 94% 29.88 in 5.0 mi SSW 6.9 mph - 0.02 in   Overcast